Time,TemperatureF,DewpointF,PressureIn,WindDirection,WindDirectionDegrees,WindSpeedMPH,WindSpeedGustMPH,Humidity,HourlyPrecipIn,Conditions,Clouds,dailyrainin,SoftwareType,DateUTC
2013-08-23 00:00:00,79.4,74.2,30.05,WSW,248,0.0,0.0,84,0.00,,,0.00,WUHU216HW,2013-08-23 04:00:00,
2013-08-23 00:01:00,79.4,74.2,30.05,WSW,248,0.0,0.0,84,0.00,,,0.00,WUHU216HW,2013-08-23 04:01:00,
2013-08-23 00:06:00,79.4,74.2,30.05,WSW,248,0.0,0.0,84,0.00,,,0.00,WUHU216HW,2013-08-23 04:06:00,
2013-08-23 00:11:00,79.4,74.2,30.05,WSW,248,0.0,0.0,84,0.00,,,0.00,WUHU216HW,2013-08-23 04:11:00,
2013-08-23 00:16:00,79.4,74.2,30.05,WSW,248,0.0,0.0,84,0.00,,,0.00,WUHU216HW,2013-08-23 04:16:00,
2013-08-23 00:21:00,79.4,74.5,30.05,WSW,248,0.0,0.0,85,0.00,,,0.00,WUHU216HW,2013-08-23 04:21:00,
2013-08-23 00:26:00,79.4,74.5,30.05,WSW,248,0.0,0.0,85,0.00,,,0.00,WUHU216HW,2013-08-23 04:26:00,
2013-08-23 00:31:00,79.4,74.5,30.04,WSW,248,0.0,0.0,85,0.00,,,0.00,WUHU216HW,2013-08-23 04:31:00,
2013-08-23 00:36:00,79.2,74.4,30.04,WSW,248,0.0,0.0,85,0.00,,,0.00,WUHU216HW,2013-08-23 04:36:00,
2013-08-23 00:41:00,79.2,74.4,30.04,WSW,248,0.0,0.0,85,0.00,,,0.00,WUHU216HW,2013-08-23 04:41:00,
2013-08-23 00:46:00,79.0,74.2,30.04,WSW,248,0.0,0.0,85,0.00,,,0.00,WUHU216HW,2013-08-23 04:46:00,
2013-08-23 00:51:00,79.0,74.2,30.04,WSW,248,0.0,0.0,85,0.00,,,0.00,WUHU216HW,2013-08-23 04:51:00,
2013-08-23 00:56:00,79.0,74.2,30.04,WSW,248,0.0,0.0,85,0.00,,,0.00,WUHU216HW,2013-08-23 04:56:00,
2013-08-23 01:01:00,78.8,74.0,30.04,WSW,248,0.0,0.0,85,0.00,,,0.00,WUHU216HW,2013-08-23 05:01:00,
2013-08-23 01:06:00,78.8,74.0,30.04,WSW,248,0.0,0.0,85,0.00,,,0.00,WUHU216HW,2013-08-23 05:06:00,
2013-08-23 01:11:00,78.8,74.0,30.04,WSW,248,0.0,0.0,85,0.00,,,0.00,WUHU216HW,2013-08-23 05:11:00,
2013-08-23 01:16:00,78.8,74.0,30.05,WSW,248,0.0,0.0,85,0.00,,,0.00,WUHU216HW,2013-08-23 05:16:00,
2013-08-23 01:21:00,78.8,74.0,30.04,WSW,248,0.0,0.0,85,0.00,,,0.00,WUHU216HW,2013-08-23 05:21:00,
2013-08-23 01:26:00,78.8,74.0,30.05,WSW,248,0.0,0.0,85,0.00,,,0.00,WUHU216HW,2013-08-23 05:26:00,
2013-08-23 01:31:00,78.8,74.0,30.05,WSW,248,0.0,0.0,85,0.00,,,0.00,WUHU216HW,2013-08-23 05:31:00,
2013-08-23 01:36:00,78.7,73.8,30.05,WSW,248,0.0,0.0,85,0.00,,,0.00,WUHU216HW,2013-08-23 05:36:00,
2013-08-23 01:41:00,78.7,73.8,30.05,WSW,248,0.0,0.0,85,0.00,,,0.00,WUHU216HW,2013-08-23 05:41:00,
2013-08-23 01:46:00,78.5,73.6,30.05,WSW,248,0.0,0.0,85,0.00,,,0.00,WUHU216HW,2013-08-23 05:46:00,
2013-08-23 01:51:00,78.5,73.6,30.04,WSW,248,0.0,0.0,85,0.00,,,0.00,WUHU216HW,2013-08-23 05:51:00,
2013-08-23 01:56:00,78.5,73.6,30.04,WSW,248,0.0,0.0,85,0.00,,,0.00,WUHU216HW,2013-08-23 05:56:00,
2013-08-23 02:01:00,78.5,73.6,30.04,WSW,248,0.0,0.0,85,0.00,,,0.00,WUHU216HW,2013-08-23 06:01:00,
2013-08-23 02:06:00,78.5,73.6,30.04,WSW,248,0.0,0.0,85,0.00,,,0.00,WUHU216HW,2013-08-23 06:06:00,
2013-08-23 02:11:00,78.5,73.6,30.04,WSW,248,0.0,0.0,85,0.00,,,0.00,WUHU216HW,2013-08-23 06:11:00,
2013-08-23 02:16:00,78.5,73.6,30.04,WSW,248,0.0,0.0,85,0.00,,,0.00,WUHU216HW,2013-08-23 06:16:00,
2013-08-23 02:21:00,78.5,73.6,30.04,WSW,248,0.0,0.0,85,0.00,,,0.00,WUHU216HW,2013-08-23 06:21:00,
2013-08-23 02:26:00,78.5,73.6,30.03,WSW,248,0.0,0.0,85,0.00,,,0.00,WUHU216HW,2013-08-23 06:26:00,
2013-08-23 02:31:00,78.5,74.0,30.03,WSW,248,0.0,0.0,86,0.00,,,0.00,WUHU216HW,2013-08-23 06:31:00,
2013-08-23 02:36:00,78.3,73.8,30.03,WSW,248,0.0,0.0,86,0.00,,,0.00,WUHU216HW,2013-08-23 06:36:00,
2013-08-23 02:41:00,78.5,74.0,30.03,WSW,248,0.0,0.0,86,0.00,,,0.00,WUHU216HW,2013-08-23 06:41:00,
2013-08-23 02:46:00,78.3,73.8,30.02,WSW,248,0.0,0.0,86,0.00,,,0.00,WUHU216HW,2013-08-23 06:46:00,
2013-08-23 02:51:00,78.3,73.8,30.02,WSW,248,0.0,0.0,86,0.00,,,0.00,WUHU216HW,2013-08-23 06:51:00,
2013-08-23 02:56:00,78.3,73.8,30.02,WSW,248,0.0,0.0,86,0.00,,,0.00,WUHU216HW,2013-08-23 06:56:00,
2013-08-23 03:01:00,78.3,73.8,30.02,WSW,248,0.0,0.0,86,0.00,,,0.00,WUHU216HW,2013-08-23 07:01:00,
2013-08-23 03:06:00,78.1,73.6,30.02,WSW,248,0.0,0.0,86,0.00,,,0.00,WUHU216HW,2013-08-23 07:06:00,
2013-08-23 03:11:00,78.1,73.6,30.02,WSW,248,0.0,0.0,86,0.00,,,0.00,WUHU216HW,2013-08-23 07:11:00,
2013-08-23 03:16:00,78.1,73.6,30.02,WSW,248,0.0,0.0,86,0.00,,,0.00,WUHU216HW,2013-08-23 07:16:00,
2013-08-23 03:21:00,78.1,73.6,30.02,WSW,248,0.0,0.0,86,0.00,,,0.00,WUHU216HW,2013-08-23 07:21:00,
2013-08-23 03:26:00,78.1,73.6,30.02,WSW,248,0.0,0.0,86,0.00,,,0.00,WUHU216HW,2013-08-23 07:26:00,
2013-08-23 03:31:00,77.9,73.4,30.02,WSW,248,0.0,0.0,86,0.00,,,0.00,WUHU216HW,2013-08-23 07:31:00,
2013-08-23 03:35:00,77.9,73.4,30.02,WSW,248,0.0,0.0,86,0.00,,,0.00,WUHU216HW,2013-08-23 07:35:00,
2013-08-23 03:40:00,77.9,73.4,30.02,WSW,248,0.0,0.0,86,0.00,,,0.00,WUHU216HW,2013-08-23 07:40:00,
2013-08-23 03:45:00,77.9,73.4,30.02,WSW,248,0.0,0.0,86,0.00,,,0.00,WUHU216HW,2013-08-23 07:45:00,
2013-08-23 03:50:00,77.8,73.3,30.02,WSW,248,0.0,0.0,86,0.00,,,0.00,WUHU216HW,2013-08-23 07:50:00,
2013-08-23 03:55:00,77.8,73.3,30.02,WSW,248,0.0,0.0,86,0.00,,,0.00,WUHU216HW,2013-08-23 07:55:00,
2013-08-23 04:00:00,77.6,73.1,30.02,NW,315,0.0,0.0,86,0.00,,,0.00,WUHU216HW,2013-08-23 08:00:00,
2013-08-23 04:05:00,77.4,73.3,30.02,NW,315,0.0,0.0,87,0.00,,,0.00,WUHU216HW,2013-08-23 08:05:00,
2013-08-23 04:10:00,77.4,73.3,30.01,NW,315,0.0,0.0,87,0.00,,,0.00,WUHU216HW,2013-08-23 08:10:00,
2013-08-23 04:15:00,77.4,73.3,30.01,NW,315,0.0,0.0,87,0.00,,,0.00,WUHU216HW,2013-08-23 08:15:00,
2013-08-23 04:20:00,77.4,73.3,30.02,NW,315,0.0,0.0,87,0.00,,,0.00,WUHU216HW,2013-08-23 08:20:00,
2013-08-23 04:25:00,77.2,73.1,30.01,NW,315,0.0,0.0,87,0.00,,,0.00,WUHU216HW,2013-08-23 08:25:00,
2013-08-23 04:30:00,77.2,73.1,30.01,NW,315,0.0,0.0,87,0.00,,,0.00,WUHU216HW,2013-08-23 08:30:00,
2013-08-23 04:35:00,77.0,72.9,30.01,NW,315,0.0,0.0,87,0.00,,,0.00,WUHU216HW,2013-08-23 08:35:00,
2013-08-23 04:40:00,77.0,72.9,30.01,NW,315,0.0,0.0,87,0.00,,,0.00,WUHU216HW,2013-08-23 08:40:00,
2013-08-23 04:45:00,77.0,72.9,30.01,NW,315,0.0,0.0,87,0.00,,,0.00,WUHU216HW,2013-08-23 08:45:00,
2013-08-23 04:50:00,77.0,72.9,30.00,NW,315,0.0,0.0,87,0.00,,,0.00,WUHU216HW,2013-08-23 08:50:00,
2013-08-23 04:55:00,76.9,72.7,30.00,NW,315,0.0,0.0,87,0.00,,,0.00,WUHU216HW,2013-08-23 08:55:00,
2013-08-23 05:00:00,76.9,72.7,30.01,NW,315,0.0,0.0,87,0.00,,,0.00,WUHU216HW,2013-08-23 09:00:00,
2013-08-23 05:05:00,76.9,72.7,30.00,NW,315,0.0,0.0,87,0.00,,,0.00,WUHU216HW,2013-08-23 09:05:00,
2013-08-23 05:10:00,76.7,72.5,30.01,NW,315,0.0,0.0,87,0.00,,,0.00,WUHU216HW,2013-08-23 09:10:00,
2013-08-23 05:15:00,76.7,72.5,30.00,NW,315,0.0,0.0,87,0.00,,,0.00,WUHU216HW,2013-08-23 09:15:00,
2013-08-23 05:20:00,76.7,72.5,30.01,NW,315,0.0,0.0,87,0.00,,,0.00,WUHU216HW,2013-08-23 09:20:00,
2013-08-23 05:25:00,76.5,72.4,30.01,NW,315,0.0,0.0,87,0.00,,,0.00,WUHU216HW,2013-08-23 09:25:00,
2013-08-23 05:30:00,76.3,72.2,30.01,NW,315,0.0,0.0,87,0.00,,,0.00,WUHU216HW,2013-08-23 09:30:00,
2013-08-23 05:35:00,76.3,72.2,30.01,NW,315,0.0,0.0,87,0.00,,,0.00,WUHU216HW,2013-08-23 09:35:00,
2013-08-23 05:40:00,76.3,72.2,30.01,NW,315,0.0,0.0,87,0.00,,,0.00,WUHU216HW,2013-08-23 09:40:00,
2013-08-23 05:45:00,76.1,72.0,30.01,NW,315,0.0,0.0,87,0.00,,,0.00,WUHU216HW,2013-08-23 09:45:00,
2013-08-23 05:50:00,76.1,72.0,30.01,NW,315,0.0,0.0,87,0.00,,,0.00,WUHU216HW,2013-08-23 09:50:00,
2013-08-23 05:55:00,76.1,72.0,30.01,NW,315,0.0,0.0,87,0.00,,,0.00,WUHU216HW,2013-08-23 09:55:00,
2013-08-23 06:00:00,76.0,71.8,30.01,NW,315,0.0,0.0,87,0.00,,,0.00,WUHU216HW,2013-08-23 10:00:00,
2013-08-23 06:05:00,76.0,71.8,30.01,NW,315,0.0,0.0,87,0.00,,,0.00,WUHU216HW,2013-08-23 10:05:00,
2013-08-23 06:10:00,76.0,71.8,30.01,NW,315,0.0,0.0,87,0.00,,,0.00,WUHU216HW,2013-08-23 10:10:00,
2013-08-23 06:15:00,76.0,71.8,30.01,NW,315,0.0,0.0,87,0.00,,,0.00,WUHU216HW,2013-08-23 10:15:00,
2013-08-23 06:20:00,76.0,71.8,30.01,NW,315,0.0,0.0,87,0.00,,,0.00,WUHU216HW,2013-08-23 10:20:00,
2013-08-23 06:25:00,76.0,71.8,30.01,NW,315,0.0,0.0,87,0.00,,,0.00,WUHU216HW,2013-08-23 10:25:00,
2013-08-23 06:30:00,76.0,71.8,30.01,NW,315,0.0,0.0,87,0.00,,,0.00,WUHU216HW,2013-08-23 10:30:00,
2013-08-23 06:35:00,75.8,71.6,30.01,NW,315,0.0,0.0,87,0.00,,,0.00,WUHU216HW,2013-08-23 10:35:00,
2013-08-23 06:40:00,75.8,71.6,30.01,NW,315,0.0,0.0,87,0.00,,,0.00,WUHU216HW,2013-08-23 10:40:00,
2013-08-23 06:45:00,75.8,71.6,30.01,NW,315,0.0,0.0,87,0.00,,,0.00,WUHU216HW,2013-08-23 10:45:00,
2013-08-23 06:50:00,75.8,71.6,30.02,NW,315,0.0,0.0,87,0.00,,,0.00,WUHU216HW,2013-08-23 10:50:00,
2013-08-23 06:55:00,75.6,71.5,30.02,NW,315,0.0,0.0,87,0.00,,,0.00,WUHU216HW,2013-08-23 10:55:00,
2013-08-23 07:00:00,75.6,71.5,30.02,NW,315,0.0,0.0,87,0.00,,,0.00,WUHU216HW,2013-08-23 11:00:00,
2013-08-23 07:05:00,75.6,71.5,30.02,NW,315,0.0,0.0,87,0.00,,,0.00,WUHU216HW,2013-08-23 11:05:00,
2013-08-23 07:10:00,75.6,71.5,30.02,NW,315,0.0,0.0,87,0.00,,,0.00,WUHU216HW,2013-08-23 11:10:00,
2013-08-23 07:15:00,75.6,71.5,30.03,NW,315,0.0,0.0,87,0.00,,,0.00,WUHU216HW,2013-08-23 11:15:00,
2013-08-23 07:20:00,75.6,71.5,30.03,NW,315,0.0,0.0,87,0.00,,,0.00,WUHU216HW,2013-08-23 11:20:00,
2013-08-23 07:25:00,75.6,71.5,30.03,NW,315,0.0,0.0,87,0.00,,,0.00,WUHU216HW,2013-08-23 11:25:00,
2013-08-23 07:30:00,75.6,71.5,30.03,NW,315,0.0,0.0,87,0.00,,,0.00,WUHU216HW,2013-08-23 11:30:00,
2013-08-23 07:35:00,75.6,71.5,30.03,NW,315,0.0,0.0,87,0.00,,,0.00,WUHU216HW,2013-08-23 11:35:00,
2013-08-23 07:40:00,75.6,71.5,30.03,NNW,338,0.4,0.4,87,0.00,,,0.00,WUHU216HW,2013-08-23 11:40:00,
2013-08-23 07:45:00,75.6,71.5,30.03,NW,315,0.0,0.4,87,0.00,,,0.00,WUHU216HW,2013-08-23 11:45:00,
2013-08-23 07:50:00,75.8,71.6,30.03,NW,315,0.4,0.4,87,0.00,,,0.00,WUHU216HW,2013-08-23 11:50:00,
2013-08-23 07:55:00,75.8,71.6,30.03,NW,315,0.0,0.4,87,0.00,,,0.00,WUHU216HW,2013-08-23 11:55:00,
2013-08-23 08:00:00,76.0,71.8,30.03,NW,315,0.2,0.2,87,0.00,,,0.00,WUHU216HW,2013-08-23 12:00:00,
2013-08-23 08:05:00,76.1,72.0,30.03,NW,315,0.0,0.2,87,0.00,,,0.00,WUHU216HW,2013-08-23 12:05:00,
2013-08-23 08:10:00,76.3,72.2,30.03,WNW,293,0.0,0.0,87,0.00,,,0.00,WUHU216HW,2013-08-23 12:10:00,
2013-08-23 08:15:00,76.3,72.5,30.04,NW,315,0.0,0.4,88,0.00,,,0.00,WUHU216HW,2013-08-23 12:15:00,
2013-08-23 08:20:00,76.7,72.9,30.04,NW,315,0.0,0.4,88,0.00,,,0.00,WUHU216HW,2013-08-23 12:20:00,
2013-08-23 08:25:00,76.7,72.5,30.03,NW,315,0.0,0.4,87,0.00,,,0.00,WUHU216HW,2013-08-23 12:25:00,
2013-08-23 08:30:00,76.9,72.7,30.03,NW,315,0.0,0.4,87,0.00,,,0.00,WUHU216HW,2013-08-23 12:30:00,
2013-08-23 08:35:00,77.0,72.9,30.03,NW,315,0.0,0.4,87,0.00,,,0.00,WUHU216HW,2013-08-23 12:35:00,
2013-08-23 08:40:00,77.2,73.1,30.04,NW,315,0.0,1.1,87,0.00,,,0.00,WUHU216HW,2013-08-23 12:40:00,
2013-08-23 08:45:00,77.4,73.3,30.04,NNW,338,0.7,1.1,87,0.00,,,0.00,WUHU216HW,2013-08-23 12:45:00,
2013-08-23 08:50:00,77.6,73.4,30.03,NW,315,0.0,1.1,87,0.00,,,0.00,WUHU216HW,2013-08-23 12:50:00,
2013-08-23 08:55:00,77.8,73.6,30.03,NW,315,0.7,1.1,87,0.00,,,0.00,WUHU216HW,2013-08-23 12:55:00,
2013-08-23 09:00:00,77.9,73.4,30.03,West,270,0.0,1.1,86,0.00,,,0.00,WUHU216HW,2013-08-23 13:00:00,
2013-08-23 09:05:00,78.1,73.6,30.03,NW,315,0.0,1.1,86,0.00,,,0.00,WUHU216HW,2013-08-23 13:05:00,
2013-08-23 09:10:00,78.1,73.6,30.04,WNW,293,0.4,0.9,86,0.00,,,0.00,WUHU216HW,2013-08-23 13:10:00,
2013-08-23 09:15:00,78.5,73.6,30.04,West,270,0.2,1.1,85,0.00,,,0.00,WUHU216HW,2013-08-23 13:15:00,
2013-08-23 09:20:00,78.5,73.6,30.04,NW,315,0.2,1.1,85,0.00,,,0.00,WUHU216HW,2013-08-23 13:20:00,
2013-08-23 09:25:00,78.7,73.8,30.04,NW,315,0.0,0.4,85,0.00,,,0.00,WUHU216HW,2013-08-23 13:25:00,
2013-08-23 09:30:00,78.8,74.0,30.04,NW,315,0.2,1.1,85,0.00,,,0.00,WUHU216HW,2013-08-23 13:30:00,
2013-08-23 09:35:00,79.0,74.2,30.04,West,270,0.9,1.1,85,0.00,,,0.00,WUHU216HW,2013-08-23 13:35:00,
2013-08-23 09:40:00,79.2,74.0,30.04,NW,315,0.4,1.1,84,0.00,,,0.00,WUHU216HW,2013-08-23 13:40:00,
2013-08-23 09:45:00,79.6,74.4,30.04,NW,315,0.9,1.1,84,0.00,,,0.00,WUHU216HW,2013-08-23 13:45:00,
2013-08-23 09:50:00,79.6,74.0,30.04,NNW,338,0.9,0.9,83,0.00,,,0.00,WUHU216HW,2013-08-23 13:50:00,
2013-08-23 09:55:00,79.7,73.8,30.04,WNW,293,0.9,1.1,82,0.00,,,0.00,WUHU216HW,2013-08-23 13:55:00,
2013-08-23 10:00:00,79.9,74.0,30.04,NW,315,0.0,1.1,82,0.00,,,0.00,WUHU216HW,2013-08-23 14:00:00,
2013-08-23 10:05:00,80.1,73.8,30.04,NW,315,0.0,1.1,81,0.00,,,0.00,WUHU216HW,2013-08-23 14:05:00,
2013-08-23 10:10:00,80.3,74.0,30.04,NW,315,0.9,1.1,81,0.00,,,0.00,WUHU216HW,2013-08-23 14:10:00,
2013-08-23 10:15:00,80.5,74.2,30.04,NW,315,0.7,0.9,81,0.00,,,0.00,WUHU216HW,2013-08-23 14:15:00,
2013-08-23 10:20:00,80.6,74.0,30.04,WNW,293,0.4,0.7,80,0.00,,,0.00,WUHU216HW,2013-08-23 14:20:00,
2013-08-23 10:25:00,80.6,74.4,30.04,NW,315,0.4,1.1,81,0.00,,,0.00,WUHU216HW,2013-08-23 14:25:00,
2013-08-23 10:30:00,81.0,74.7,30.04,NW,315,0.2,1.1,81,0.00,,,0.00,WUHU216HW,2013-08-23 14:30:00,
2013-08-23 10:35:00,81.0,74.3,30.04,WNW,293,0.4,0.4,80,0.00,,,0.00,WUHU216HW,2013-08-23 14:35:00,
2013-08-23 10:40:00,81.0,74.3,30.05,NW,315,0.7,1.1,80,0.00,,,0.00,WUHU216HW,2013-08-23 14:40:00,
2013-08-23 10:45:00,81.2,74.2,30.05,NW,315,0.7,1.1,79,0.00,,,0.00,WUHU216HW,2013-08-23 14:45:00,
2013-08-23 10:50:00,81.2,74.2,30.05,NW,315,0.4,0.7,79,0.00,,,0.00,WUHU216HW,2013-08-23 14:50:00,
2013-08-23 10:55:00,81.4,74.4,30.05,WNW,293,0.4,0.7,79,0.00,,,0.00,WUHU216HW,2013-08-23 14:55:00,
2013-08-23 11:00:00,81.4,74.4,30.05,NW,315,0.4,0.7,79,0.00,,,0.00,WUHU216HW,2013-08-23 15:00:00,
2013-08-23 11:05:00,81.5,74.9,30.05,NW,315,0.2,1.1,80,0.00,,,0.00,WUHU216HW,2013-08-23 15:05:00,
2013-08-23 11:10:00,81.7,75.1,30.05,WNW,293,0.0,1.1,80,0.00,,,0.00,WUHU216HW,2013-08-23 15:10:00,
2013-08-23 11:15:00,81.7,75.1,30.05,NW,315,0.0,1.1,80,0.00,,,0.00,WUHU216HW,2013-08-23 15:15:00,
2013-08-23 11:20:00,82.1,75.8,30.05,West,270,0.9,1.1,81,0.00,,,0.00,WUHU216HW,2013-08-23 15:20:00,
2013-08-23 11:25:00,82.1,75.4,30.05,NW,315,0.9,1.1,80,0.00,,,0.00,WUHU216HW,2013-08-23 15:25:00,
2013-08-23 11:30:00,82.3,75.6,30.04,SE,135,0.4,0.9,80,0.00,,,0.00,WUHU216HW,2013-08-23 15:30:00,
2013-08-23 11:35:00,82.4,75.3,30.05,West,270,0.2,0.4,79,0.00,,,0.00,WUHU216HW,2013-08-23 15:35:00,
2013-08-23 11:40:00,82.4,75.3,30.04,West,270,0.4,0.4,79,0.00,,,0.00,WUHU216HW,2013-08-23 15:40:00,
2013-08-23 11:45:00,82.6,75.5,30.04,WNW,293,0.0,0.7,79,0.00,,,0.00,WUHU216HW,2013-08-23 15:45:00,
2013-08-23 11:50:00,82.8,75.7,30.04,West,270,0.0,1.1,79,0.00,,,0.00,WUHU216HW,2013-08-23 15:50:00,
2013-08-23 11:55:00,83.0,75.9,30.04,WSW,248,1.1,1.1,79,0.00,,,0.00,WUHU216HW,2013-08-23 15:55:00,
2013-08-23 12:00:00,83.2,76.1,30.03,WSW,248,0.7,1.1,79,0.00,,,0.00,WUHU216HW,2013-08-23 16:00:00,
2013-08-23 12:05:00,83.5,76.3,30.03,WNW,293,0.4,1.1,79,0.00,,,0.00,WUHU216HW,2013-08-23 16:05:00,
2013-08-23 12:10:00,83.9,76.7,30.03,WNW,293,0.7,1.1,79,0.00,,,0.00,WUHU216HW,2013-08-23 16:10:00,
2013-08-23 12:15:00,83.9,76.3,30.03,NW,315,1.1,1.1,78,0.00,,,0.00,WUHU216HW,2013-08-23 16:15:00,
2013-08-23 12:20:00,83.9,75.9,30.03,NNW,338,0.0,1.1,77,0.00,,,0.00,WUHU216HW,2013-08-23 16:20:00,
2013-08-23 12:25:00,84.2,76.2,30.03,NW,315,0.7,1.1,77,0.00,,,0.00,WUHU216HW,2013-08-23 16:25:00,
2013-08-23 12:30:00,84.2,75.8,30.03,NW,315,0.0,1.1,76,0.00,,,0.00,WUHU216HW,2013-08-23 16:30:00,
2013-08-23 12:35:00,84.4,76.0,30.03,NW,315,0.4,1.3,76,0.00,,,0.00,WUHU216HW,2013-08-23 16:35:00,
2013-08-23 12:40:00,84.8,76.3,30.03,SSE,158,0.4,1.3,76,0.00,,,0.00,WUHU216HW,2013-08-23 16:40:00,
2013-08-23 12:45:00,85.1,76.7,30.02,NW,315,0.4,0.4,76,0.00,,,0.00,WUHU216HW,2013-08-23 16:45:00,
2013-08-23 12:50:00,85.5,77.0,30.02,NW,315,0.2,0.4,76,0.00,,,0.00,WUHU216HW,2013-08-23 16:50:00,
2013-08-23 12:55:00,85.9,77.4,30.02,West,270,0.9,1.8,76,0.00,,,0.00,WUHU216HW,2013-08-23 16:55:00,
2013-08-23 13:00:00,86.0,77.2,30.02,NW,315,0.4,1.8,75,0.00,,,0.00,WUHU216HW,2013-08-23 17:00:00,
2013-08-23 13:05:00,85.9,76.7,30.02,NNW,338,0.4,1.1,74,0.00,,,0.00,WUHU216HW,2013-08-23 17:05:00,
2013-08-23 13:10:00,85.9,76.2,30.02,West,270,0.4,1.1,73,0.00,,,0.00,WUHU216HW,2013-08-23 17:10:00,
2013-08-23 13:15:00,86.0,76.4,30.02,WNW,293,0.0,1.1,73,0.00,,,0.00,WUHU216HW,2013-08-23 17:15:00,
2013-08-23 13:20:00,86.0,76.4,30.02,NW,315,0.4,1.1,73,0.00,,,0.00,WUHU216HW,2013-08-23 17:20:00,
2013-08-23 13:25:00,86.0,76.4,30.02,WSW,248,1.6,1.6,73,0.00,,,0.00,WUHU216HW,2013-08-23 17:25:00,
2013-08-23 13:30:00,86.0,76.1,30.02,West,270,1.1,1.6,72,0.00,,,0.00,WUHU216HW,2013-08-23 17:30:00,
2013-08-23 13:35:00,86.0,76.1,30.02,West,270,0.4,1.6,72,0.00,,,0.00,WUHU216HW,2013-08-23 17:35:00,
2013-08-23 13:40:00,86.0,76.1,30.01,NW,315,0.4,0.9,72,0.00,,,0.00,WUHU216HW,2013-08-23 17:40:00,
2013-08-23 13:45:00,86.0,76.1,30.01,NW,315,0.0,1.3,72,0.00,,,0.00,WUHU216HW,2013-08-23 17:45:00,
2013-08-23 13:50:00,86.2,75.8,30.01,South,180,0.0,1.3,71,0.00,,,0.00,WUHU216HW,2013-08-23 17:50:00,
2013-08-23 13:55:00,86.4,76.3,30.01,SE,135,0.0,1.1,72,0.00,,,0.00,WUHU216HW,2013-08-23 17:55:00,
2013-08-23 14:00:00,86.4,76.0,30.01,NW,315,1.1,1.1,71,0.00,,,0.00,WUHU216HW,2013-08-23 18:00:00,
2013-08-23 14:05:00,86.6,76.2,30.00,NW,315,0.7,1.3,71,0.00,,,0.00,WUHU216HW,2013-08-23 18:05:00,
2013-08-23 14:10:00,86.4,76.0,30.00,NW,315,0.0,1.3,71,0.00,,,0.00,WUHU216HW,2013-08-23 18:10:00,
2013-08-23 14:15:00,86.4,76.0,30.00,WSW,248,0.9,1.1,71,0.00,,,0.00,WUHU216HW,2013-08-23 18:15:00,
2013-08-23 14:20:00,86.4,76.0,30.00,NW,315,0.0,0.9,71,0.00,,,0.00,WUHU216HW,2013-08-23 18:20:00,
2013-08-23 14:25:00,86.4,76.0,30.00,WNW,293,0.2,0.7,71,0.00,,,0.00,WUHU216HW,2013-08-23 18:25:00,
2013-08-23 14:30:00,86.4,76.0,30.00,NW,315,0.0,0.7,71,0.00,,,0.00,WUHU216HW,2013-08-23 18:30:00,
2013-08-23 14:35:00,86.4,75.6,29.99,North,0,0.0,0.7,70,0.00,,,0.00,WUHU216HW,2013-08-23 18:35:00,
2013-08-23 14:40:00,86.4,76.0,29.99,SW,225,0.0,0.4,71,0.00,,,0.00,WUHU216HW,2013-08-23 18:40:00,
2013-08-23 14:44:00,86.4,76.0,29.99,West,270,0.2,0.4,71,0.00,,,0.00,WUHU216HW,2013-08-23 18:44:00,
2013-08-23 14:49:00,86.6,76.5,29.99,WNW,293,0.4,0.7,72,0.00,,,0.00,WUHU216HW,2013-08-23 18:49:00,
2013-08-23 14:54:00,86.6,76.5,29.99,NW,315,0.0,0.7,72,0.00,,,0.00,WUHU216HW,2013-08-23 18:54:00,
2013-08-23 14:59:00,86.8,76.7,29.98,NW,315,0.9,0.9,72,0.00,,,0.00,WUHU216HW,2013-08-23 18:59:00,
2013-08-23 15:04:00,86.8,76.3,29.98,NW,315,0.7,0.9,71,0.00,,,0.00,WUHU216HW,2013-08-23 19:04:00,
2013-08-23 15:09:00,86.9,76.5,29.98,SW,225,1.1,1.1,71,0.00,,,0.00,WUHU216HW,2013-08-23 19:09:00,
2013-08-23 15:14:00,87.1,76.6,29.98,NW,315,0.0,1.3,71,0.00,,,0.00,WUHU216HW,2013-08-23 19:14:00,
2013-08-23 15:19:00,87.1,76.6,29.97,NW,315,0.7,1.3,71,0.00,,,0.00,WUHU216HW,2013-08-23 19:19:00,
2013-08-23 15:24:00,87.3,76.4,29.97,WSW,248,1.6,1.6,70,0.00,,,0.00,WUHU216HW,2013-08-23 19:24:00,
2013-08-23 15:29:00,87.3,76.4,29.97,SW,225,1.3,1.6,70,0.00,,,0.00,WUHU216HW,2013-08-23 19:29:00,
2013-08-23 15:34:00,87.5,75.6,29.97,WSW,248,1.8,2.2,68,0.00,,,0.00,WUHU216HW,2013-08-23 19:34:00,
2013-08-23 15:39:00,87.7,75.8,29.97,West,270,0.0,2.2,68,0.00,,,0.00,WUHU216HW,2013-08-23 19:39:00,
2013-08-23 15:44:00,87.8,76.0,29.96,SE,135,0.7,1.6,68,0.00,,,0.00,WUHU216HW,2013-08-23 19:44:00,
2013-08-23 15:49:00,87.8,76.4,29.96,WSW,248,0.4,1.6,69,0.00,,,0.00,WUHU216HW,2013-08-23 19:49:00,
2013-08-23 15:54:00,88.0,76.2,29.96,WNW,293,0.0,1.6,68,0.00,,,0.00,WUHU216HW,2013-08-23 19:54:00,
2013-08-23 15:59:00,88.0,76.2,29.96,WSW,248,1.3,1.3,68,0.00,,,0.00,WUHU216HW,2013-08-23 19:59:00,
2013-08-23 16:04:00,88.2,77.2,29.96,WSW,248,1.1,1.8,70,0.00,,,0.00,WUHU216HW,2013-08-23 20:04:00,
2013-08-23 16:09:00,88.4,77.9,29.96,ESE,113,1.3,3.8,71,0.00,,,0.00,WUHU216HW,2013-08-23 20:09:00,
2013-08-23 16:14:00,88.6,78.0,29.96,WSW,248,0.9,3.8,71,0.00,,,0.00,WUHU216HW,2013-08-23 20:14:00,
2013-08-23 16:19:00,88.7,78.2,29.96,WSW,248,0.7,1.8,71,0.00,,,0.00,WUHU216HW,2013-08-23 20:19:00,
2013-08-23 16:24:00,88.7,78.2,29.96,SW,225,1.8,4.7,71,0.00,,,0.00,WUHU216HW,2013-08-23 20:24:00,
2013-08-23 16:29:00,88.7,78.2,29.96,SW,225,0.4,4.7,71,0.00,,,0.00,WUHU216HW,2013-08-23 20:29:00,
2013-08-23 16:34:00,88.7,77.8,29.96,WSW,248,0.9,2.5,70,0.00,,,0.00,WUHU216HW,2013-08-23 20:34:00,
2013-08-23 16:39:00,88.7,77.8,29.97,WSW,248,3.6,3.6,70,0.00,,,0.00,WUHU216HW,2013-08-23 20:39:00,
2013-08-23 16:44:00,88.6,77.6,29.97,SW,225,2.7,3.6,70,0.00,,,0.00,WUHU216HW,2013-08-23 20:44:00,
2013-08-23 16:49:00,88.6,77.6,29.97,SSW,203,1.6,2.7,70,0.00,,,0.00,WUHU216HW,2013-08-23 20:49:00,
2013-08-23 16:54:00,88.4,77.0,29.97,WSW,248,3.6,3.6,69,0.00,,,0.00,WUHU216HW,2013-08-23 20:54:00,
2013-08-23 16:59:00,88.4,77.0,29.97,SW,225,1.6,3.6,69,0.00,,,0.00,WUHU216HW,2013-08-23 20:59:00,
2013-08-23 17:04:00,88.2,76.8,29.97,WSW,248,3.1,3.6,69,0.00,,,0.00,WUHU216HW,2013-08-23 21:04:00,
2013-08-23 17:09:00,88.2,77.2,29.97,WSW,248,1.8,3.6,70,0.00,,,0.00,WUHU216HW,2013-08-23 21:09:00,
2013-08-23 17:14:00,88.0,76.6,29.97,WSW,248,1.3,4.0,69,0.00,,,0.00,WUHU216HW,2013-08-23 21:14:00,
2013-08-23 17:19:00,88.0,76.6,29.97,SW,225,2.5,4.0,69,0.00,,,0.00,WUHU216HW,2013-08-23 21:19:00,
2013-08-23 17:24:00,88.0,76.6,29.97,WSW,248,2.9,3.6,69,0.00,,,0.00,WUHU216HW,2013-08-23 21:24:00,
2013-08-23 17:29:00,87.8,76.4,29.97,WSW,248,1.8,3.1,69,0.00,,,0.00,WUHU216HW,2013-08-23 21:29:00,
2013-08-23 17:34:00,87.8,76.4,29.97,WSW,248,2.5,3.1,69,0.00,,,0.00,WUHU216HW,2013-08-23 21:34:00,
2013-08-23 17:39:00,87.7,76.2,29.97,WSW,248,1.3,3.1,69,0.00,,,0.00,WUHU216HW,2013-08-23 21:39:00,
2013-08-23 17:44:00,87.5,76.1,29.97,WSW,248,2.0,3.4,69,0.00,,,0.00,WUHU216HW,2013-08-23 21:44:00,
2013-08-23 17:49:00,87.3,76.0,29.97,SW,225,1.8,3.4,69,0.00,,,0.00,WUHU216HW,2013-08-23 21:49:00,
2013-08-23 17:53:00,86.9,75.6,29.97,WSW,248,3.4,3.4,69,0.00,,,0.00,WUHU216HW,2013-08-23 21:53:00,
2013-08-23 17:54:00,86.9,75.6,29.97,WSW,248,3.4,3.4,69,0.00,,,0.00,WUHU216HW,2013-08-23 21:54:00,
2013-08-23 17:59:00,86.9,75.6,29.97,WSW,248,3.4,3.4,69,0.00,,,0.00,WUHU216HW,2013-08-23 21:59:00,